sat.trackr.live / text

‹ back to catalog

STARLINK-31343

NORAD 59093 · 2024-041V

PAYLOAD ACTIVE UNKNOWN

§ Identity

Operator
Country
US
Launch date
2024-02-29
Launch site
AFETR
Launch vehicle
Mass (kg)
RCS (m²)

Purposes: comms

External: N2YO · Heavens-Above · Gunter

§ Orbital elements

Epoch: 2026-05-24T23:08:14.841024Z

Period
94.27 min
Inclination
42.9978°
Eccentricity
0.0001968
Mean motion
15.27581757 rev/d
Perigee alt
481.7 km
Apogee alt
484.4 km
Semi-major
6,861.2 km
B*
2.0100e-4
RAAN
240.2024°
Arg perigee
270.5886°
Mean anomaly
89.4740°
Rev number
12,598

§ Raw data

STARLINK-313431 59093U 24041V   26144.96406066  .00005273  00000+0  20100-3 0  99932 59093  42.9978 240.2024 0001968 270.5886  89.4740 15.27581757125986

JSON: /api/v1/satellites/59093 · /tle

For live sub-satellite position, see the globe view (requires WebGL).

§ Visibility from observer

Set your observer location to see the next 7 days of passes ≥ 10°. The values pass through the URL so the page stays shareable.

No JS? Fill the form by hand. The geolocation button needs JavaScript.